Location: Aubervilles
(48.9167°N, 2.3833°E)
Time: 09:28:37
(UTC+00:00)

MOS 1-B - Pass Details

Date: 03 February 2023
Orbit: 904 x 913 km, 99.4° (Epoch: 28 March)

Event Time Altitude Azimuth Distance (km) Brightness Sun altitude
Rises 18:13:57 0° 152° (SSE) 3,529 7.2 -13.9°
Reaches altitude 10° 18:16:22 10° 150° (SSE) 2,593 6.5 -14.3°
Maximum altitude 18:22:05 66° 69° (ENE) 997 4.3 -15.2°
Drops below altitude 10° 18:27:51 10° 349° (N) 2,615 6.8 -16.1°
Sets 18:30:17 0° 347° (NNW) 3,561 7.5 -16.5°
